Location: Glendale
(37.4556°N, 88.6714°W)
Time: 08:44:30
(UTC+00:00)

Cosmos 2084 Rocket - Pass Details

Date: 08 December 2019
Orbit: 572 x 609 km, 62.8° (Epoch: 17 January)

Event Time Altitude Azimuth Distance (km) Brightness Sun altitude
Exits shadow 11:37:42 19° 325° (NW) 1,458 5.0 -15.2°
Maximum altitude 11:40:51 85° 237° (WSW) 612 3.4 -14.6°
Drops below altitude 10° 11:45:15 10° 150° (SSE) 1,938 6.8 -13.8°
Sets 11:47:29 0° 150° (SSE) 2,831 7.8 -13.4°
